CFG6GF EDLP-EDDG

Flight info

Callsign CFG6GF
Flight time 0h 36m
Altitude 14000
Route HMM8W HMM HMM1A
Aircraft A321/M-SDE3FGHIRWY/LB1

Departure

Time 2026-05-06 14:43
Airport Paderborn Lippstadt Airport (EDLP)

Arrival

Time 2026-05-06 15:19
Airport Münster Osnabrück Airport (EDDG)
Time Latitude Longitude Altitude Speed Heading
2026-05-06 14:23 51.61155 8.61995 705 ft 0 kts 147°
2026-05-06 14:35 51.61155 8.61994 705 ft 1 kts 147°
2026-05-06 14:35 51.61176 8.61976 705 ft 4 kts 163°
2026-05-06 14:35 51.61200 8.61973 700 ft 4 kts 212°
2026-05-06 14:36 51.61208 8.61984 699 ft 0 kts 234°
2026-05-06 14:38 51.61208 8.61983 705 ft 1 kts 234°
2026-05-06 14:39 51.61199 8.61962 695 ft 4 kts 235°
2026-05-06 14:39 51.61176 8.61908 705 ft 8 kts 236°
2026-05-06 14:39 51.61140 8.61820 702 ft 8 kts 241°
2026-05-06 14:39 51.61148 8.61765 700 ft 7 kts 302°
2026-05-06 14:40 51.61200 8.61704 704 ft 12 kts 337°
2026-05-06 14:40 51.61276 8.61783 698 ft 17 kts 53°
2026-05-06 14:40 51.61349 8.61966 697 ft 22 kts 57°
2026-05-06 14:40 51.61443 8.62199 691 ft 27 kts 57°
2026-05-06 14:41 51.61558 8.62483 696 ft 33 kts 57°
2026-05-06 14:41 51.61692 8.62813 694 ft 38 kts 57°
2026-05-06 14:41 51.61814 8.63074 692 ft 7 kts 17°
2026-05-06 14:41 51.61874 8.63051 686 ft 11 kts 328°
2026-05-06 14:42 51.61916 8.62926 693 ft 14 kts 266°
2026-05-06 14:42 51.61892 8.62823 687 ft 5 kts 239°
2026-05-06 14:42 51.61787 8.62584 699 ft 61 kts 236°
2026-05-06 14:42 51.61429 8.61693 702 ft 125 kts 237°
2026-05-06 14:43 51.60889 8.60322 848 ft 160 kts 239°
2026-05-06 14:43 51.60277 8.58823 1553 ft 158 kts 239°
2026-05-06 14:43 51.59671 8.57364 2295 ft 156 kts 239°
2026-05-06 14:43 51.59052 8.55869 2767 ft 170 kts 238°
2026-05-06 14:44 51.58431 8.54134 3040 ft 189 kts 255°
2026-05-06 14:44 51.58443 8.51965 3235 ft 207 kts 289°
2026-05-06 14:44 51.59130 8.49798 3423 ft 230 kts 298°
2026-05-06 14:45 51.60804 8.44950 4709 ft 257 kts 297°
2026-05-06 14:45 51.61676 8.42411 5519 ft 262 kts 296°
2026-05-06 14:45 51.62563 8.39820 6351 ft 267 kts 295°
2026-05-06 14:45 51.63463 8.37182 7146 ft 270 kts 295°
2026-05-06 14:46 51.64371 8.34519 7974 ft 273 kts 295°
2026-05-06 14:46 51.65288 8.31814 8806 ft 276 kts 295°
2026-05-06 14:46 51.66213 8.29081 9622 ft 279 kts 295°
2026-05-06 14:46 51.67154 8.26294 10179 ft 292 kts 295°
2026-05-06 14:47 51.68145 8.23344 10400 ft 314 kts 296°
2026-05-06 14:47 51.69233 8.20097 10575 ft 337 kts 296°
2026-05-06 14:47 51.70373 8.16701 10903 ft 353 kts 296°
2026-05-06 14:47 51.71562 8.13157 11239 ft 361 kts 296°
2026-05-06 14:48 51.72741 8.09647 11555 ft 354 kts 296°
2026-05-06 14:48 51.73902 8.06200 11890 ft 354 kts 296°
2026-05-06 14:48 51.75087 8.02682 11877 ft 361 kts 296°
2026-05-06 14:48 51.76278 7.99141 11406 ft 357 kts 296°
2026-05-06 14:49 51.77458 7.95623 10972 ft 355 kts 296°
2026-05-06 14:49 51.78622 7.92132 10608 ft 352 kts 296°
2026-05-06 14:49 51.79776 7.88648 10239 ft 350 kts 296°
2026-05-06 14:49 51.80906 7.85222 9872 ft 341 kts 296°
2026-05-06 14:50 51.82000 7.81905 9710 ft 328 kts 296°
2026-05-06 14:50 51.83048 7.78715 9650 ft 312 kts 298°
2026-05-06 14:50 51.83948 7.75604 9595 ft 298 kts 296°
2026-05-06 14:50 51.84770 7.72613 9505 ft 287 kts 296°
2026-05-06 14:51 51.85568 7.69675 9271 ft 284 kts 295°
2026-05-06 14:51 51.86363 7.66764 9001 ft 282 kts 295°
2026-05-06 14:51 51.87155 7.63874 8712 ft 281 kts 295°
2026-05-06 14:51 51.87946 7.60999 8397 ft 279 kts 295°
2026-05-06 14:52 51.88736 7.58144 8091 ft 276 kts 295°
2026-05-06 14:52 51.89512 7.55351 7785 ft 271 kts 295°
2026-05-06 14:52 51.90278 7.52607 7484 ft 266 kts 295°
2026-05-06 14:52 51.91033 7.49904 7179 ft 261 kts 296°
2026-05-06 14:53 51.91766 7.47248 6884 ft 256 kts 295°
2026-05-06 14:53 51.92495 7.44635 6591 ft 253 kts 296°
2026-05-06 14:53 51.93217 7.42045 6293 ft 251 kts 295°
2026-05-06 14:53 51.93948 7.39476 5992 ft 251 kts 296°
2026-05-06 14:54 51.94677 7.36891 5684 ft 254 kts 296°
2026-05-06 14:54 51.95398 7.34286 5394 ft 260 kts 299°
2026-05-06 14:54 51.96105 7.31533 5045 ft 268 kts 296°
2026-05-06 14:54 51.96824 7.28716 4747 ft 272 kts 296°
2026-05-06 14:55 51.97928 7.26280 4419 ft 267 kts 324°
2026-05-06 14:55 51.99567 7.25002 4111 ft 262 kts 349°
2026-05-06 14:55 52.01389 7.24876 3797 ft 259 kts 10°
2026-05-06 14:55 52.03075 7.25812 3497 ft 255 kts 31°
2026-05-06 14:56 52.04407 7.27610 3177 ft 252 kts 50°
2026-05-06 14:56 52.05255 7.30033 3006 ft 242 kts 69°
2026-05-06 14:56 52.05787 7.32525 3004 ft 225 kts 69°
2026-05-06 14:56 52.06288 7.34847 3005 ft 213 kts 69°
2026-05-06 14:57 52.06779 7.37119 3011 ft 213 kts 69°
2026-05-06 14:57 52.07266 7.39387 3028 ft 207 kts 69°
2026-05-06 14:57 52.07729 7.41551 3015 ft 199 kts 69°
2026-05-06 14:57 52.08160 7.43563 3016 ft 175 kts 68°
2026-05-06 14:58 52.08535 7.45318 2976 ft 155 kts 68°
2026-05-06 14:58 52.08873 7.46898 2804 ft 142 kts 68°
2026-05-06 14:58 52.09193 7.48394 2612 ft 138 kts 68°
2026-05-06 14:58 52.09505 7.49849 2445 ft 135 kts 68°
2026-05-06 14:59 52.09813 7.51293 2247 ft 134 kts 67°
2026-05-06 14:59 52.10120 7.52731 2073 ft 135 kts 66°
2026-05-06 14:59 52.10425 7.54162 1891 ft 134 kts 67°
2026-05-06 14:59 52.10729 7.55591 1706 ft 133 kts 67°
2026-05-06 15:00 52.11027 7.56991 1518 ft 133 kts 67°
2026-05-06 15:00 52.11330 7.58414 1337 ft 133 kts 68°
2026-05-06 15:00 52.11629 7.59846 1145 ft 133 kts 69°
2026-05-06 15:00 52.11913 7.61280 1015 ft 134 kts 68°
2026-05-06 15:01 52.12210 7.62709 796 ft 132 kts 66°
2026-05-06 15:01 52.12538 7.64116 572 ft 134 kts 64°
2026-05-06 15:01 52.12843 7.65560 401 ft 135 kts 68°
2026-05-06 15:01 52.13144 7.66997 195 ft 134 kts 68°
2026-05-06 15:02 52.13395 7.68287 366 ft 120 kts 71°
2026-05-06 15:02 52.13637 7.69742 915 ft 142 kts 73°
2026-05-06 15:02 52.13866 7.71332 1694 ft 145 kts 74°
2026-05-06 15:02 52.14063 7.72948 2445 ft 146 kts 76°
2026-05-06 15:03 52.14227 7.74585 3164 ft 147 kts 79°
2026-05-06 15:03 52.14356 7.76243 3833 ft 148 kts 80°
2026-05-06 15:03 52.14526 7.78035 4150 ft 181 kts 73°
2026-05-06 15:03 52.14906 7.80129 4137 ft 199 kts 70°
2026-05-06 15:04 52.15355 7.82373 4121 ft 214 kts 70°
2026-05-06 15:04 52.15818 7.84652 4169 ft 204 kts 69°
2026-05-06 15:04 52.16369 7.86708 4146 ft 195 kts 57°
2026-05-06 15:04 52.16839 7.88771 4150 ft 198 kts 85°
2026-05-06 15:05 52.16462 7.90947 4156 ft 208 kts 122°
2026-05-06 15:05 52.15316 7.92406 4153 ft 215 kts 159°
2026-05-06 15:05 52.13828 7.92596 3863 ft 218 kts 192°
2026-05-06 15:05 52.12401 7.91789 3490 ft 217 kts 205°
2026-05-06 15:06 52.11076 7.90615 3165 ft 216 kts 211°
2026-05-06 15:06 52.09788 7.89345 3029 ft 217 kts 212°
2026-05-06 15:06 52.08506 7.88066 3002 ft 217 kts 212°
2026-05-06 15:06 52.07210 7.86800 3005 ft 217 kts 208°
2026-05-06 15:07 52.05890 7.85606 3002 ft 216 kts 209°
2026-05-06 15:07 52.04583 7.84382 3008 ft 218 kts 209°
2026-05-06 15:07 52.03709 7.83575 3004 ft 218 kts 208°
2026-05-06 15:07 52.02394 7.82369 3002 ft 217 kts 208°
2026-05-06 15:08 52.01085 7.81172 3000 ft 213 kts 210°
2026-05-06 15:08 51.99808 7.79955 3001 ft 214 kts 214°
2026-05-06 15:08 51.98615 7.77534 2989 ft 207 kts 255°
2026-05-06 15:08 51.98486 7.75262 3001 ft 202 kts 279°
2026-05-06 15:09 51.98628 7.73746 3000 ft 201 kts 286°
2026-05-06 15:09 51.98961 7.71545 3000 ft 200 kts 289°
2026-05-06 15:09 51.99346 7.69374 3002 ft 201 kts 290°
2026-05-06 15:09 51.99724 7.67197 2997 ft 201 kts 288°
2026-05-06 15:10 52.00059 7.65003 3004 ft 201 kts 287°
2026-05-06 15:10 52.00384 7.62811 3010 ft 203 kts 287°
2026-05-06 15:10 52.00720 7.60553 3005 ft 203 kts 287°
2026-05-06 15:10 52.01037 7.58346 3013 ft 204 kts 287°
2026-05-06 15:11 52.01348 7.56098 3002 ft 204 kts 286°
2026-05-06 15:11 52.01650 7.53851 3006 ft 203 kts 286°
2026-05-06 15:11 52.01945 7.51603 3011 ft 205 kts 286°
2026-05-06 15:11 52.02214 7.49415 3004 ft 185 kts 284°
2026-05-06 15:12 52.02437 7.47471 3002 ft 170 kts 285°
2026-05-06 15:12 52.02658 7.45618 3008 ft 165 kts 286°
2026-05-06 15:12 52.02884 7.43802 3009 ft 163 kts 286°
2026-05-06 15:12 52.03113 7.42004 3012 ft 162 kts 286°
2026-05-06 15:13 52.03343 7.40211 3012 ft 162 kts 287°
2026-05-06 15:13 52.03593 7.38444 3037 ft 155 kts 294°
2026-05-06 15:13 52.04293 7.37374 3012 ft 135 kts 346°
2026-05-06 15:13 52.05217 7.37221 3013 ft 133 kts
2026-05-06 15:14 52.06090 7.37676 3014 ft 132 kts 30°
2026-05-06 15:14 52.06802 7.38618 3019 ft 135 kts 48°
2026-05-06 15:14 52.07320 7.39901 3014 ft 137 kts 62°
2026-05-06 15:14 52.07674 7.41332 3014 ft 136 kts 69°
2026-05-06 15:15 52.07985 7.42777 3016 ft 135 kts 68°
2026-05-06 15:15 52.08298 7.44221 3014 ft 136 kts 68°
2026-05-06 15:15 52.08612 7.45673 2920 ft 136 kts 69°
2026-05-06 15:15 52.08917 7.47153 2971 ft 138 kts 71°
2026-05-06 15:16 52.09231 7.48665 2971 ft 145 kts 68°
2026-05-06 15:16 52.09586 7.50266 2910 ft 147 kts 68°
2026-05-06 15:16 52.09932 7.51867 2607 ft 159 kts 67°
2026-05-06 15:16 52.10324 7.53618 2249 ft 166 kts 67°
2026-05-06 15:17 52.10665 7.55391 2084 ft 163 kts 70°
2026-05-06 15:17 52.10952 7.57180 1793 ft 165 kts 70°
2026-05-06 15:17 52.11320 7.58918 1539 ft 164 kts 65°
2026-05-06 15:17 52.11772 7.60640 1241 ft 167 kts 63°
2026-05-06 15:18 52.12179 7.62434 934 ft 171 kts 67°
2026-05-06 15:18 52.12576 7.64288 581 ft 174 kts 68°
2026-05-06 15:18 52.12964 7.66117 312 ft 164 kts 64°
2026-05-06 15:18 52.13298 7.67704 168 ft 134 kts 65°
2026-05-06 15:19 52.13574 7.68906 167 ft 91 kts 71°
2026-05-06 15:19 52.13726 7.69688 168 ft 57 kts 72°
2026-05-06 15:19 52.13732 7.70007 168 ft 17 kts 142°
2026-05-06 15:19 52.13636 7.69997 168 ft 12 kts 206°
2026-05-06 15:20 52.13591 7.69912 168 ft 8 kts 247°
2026-05-06 15:20 52.13574 7.69842 168 ft 7 kts 251°
2026-05-06 15:20 52.13554 7.69752 168 ft 10 kts 251°
2026-05-06 15:20 52.13529 7.69631 168 ft 13 kts 252°
2026-05-06 15:21 52.13499 7.69481 168 ft 15 kts 251°
2026-05-06 15:21 52.13460 7.69301 168 ft 18 kts 249°
2026-05-06 15:21 52.13418 7.69240 168 ft 1 kts 185°
2026-05-06 15:21 52.13416 7.69241 168 ft 1 kts 175°
2026-05-06 15:22 52.13405 7.69244 168 ft 3 kts 171°
2026-05-06 15:22 52.13358 7.69265 168 ft 11 kts 161°
2026-05-06 15:22 52.13263 7.69324 168 ft 17 kts 153°
2026-05-06 15:22 52.13235 7.69375 168 ft 1 kts 118°
2026-05-06 15:23 52.13192 7.69443 168 ft 13 kts 153°
2026-05-06 15:23 52.13179 7.69441 168 ft 0 kts 191°